EHI
5 4 4 6 8 10 11 11 10 10 9 8 7 7 7 7 7 6 6 4 3 1 1 2 3 5 5 5 7 10 13 15 15 16 14 11 9 9 10 10 10 7 5
4 3 3 3 5 7 9 9 9 9 9 8 6 7 8 8 7 6 6 4 2 1 0 1 2 4 5 7 9 11 13 14 14 14 13 10 8 7 7 7 7 5 4
4 3 2 1 2 4 6 6 7 7 7 6 5 5 6 7 7 6 6 4 3 1 0 0 1 3 4 6 9 11 11 11 13 13 11 8 6 4 4 5 5 3 2
5 4 2 1 2 3 4 4 5 6 6 5 3 3 4 5 6 6 5 5 4 2 1 0 1 2 3 3 6 9 9 8 10 10 10 8 5 4 3 4 5 4 2
6 5 3 3 3 3 3 3 3 3 3 3 2 2 3 4 4 4 4 4 3 2 1 0 1 2 2 2 3 5 6 5 5 6 7 8 7 5 3 3 4 5 3
5 4 3 3 3 3 3 3 2 1 2 2 2 2 3 3 3 3 3 2 2 1 0 0 0 1 1 1 1 2 3 2 2 3 4 5 7 6 3 2 3 3 2
4 3 2 2 2 2 2 2 2 1 1 2 3 3 2 2 3 2 1 1 1 0 0 0 0 0 0 0 0 1 1 1 1 1 1 2 4 5 4 2 1 1 0
3 3 2 1 1 1 0 1 1 1 1 2 3 2 1 1 1 1 1 0 0 0 0 0 0 0 0 0 0 0 0 1 2 1 1 1 2 3 3 2 1 0 0
2 2 2 1 1 1 1 0 0 0 1 2 2 1 0 0 0 0 0 0 0 0 0 0 0 0 0 0 0 0 0 0 1 2 1 0 1 2 2 2 1 0 0
1 1 1 2 2 2 2 1 0 0 0 1 2 1 0 0 0 0 0 0 0 0 0 0 0 0 0 1 0 0 0 0 0 1 1 0 1 2 3 2 1 0 0
0 0 1 1 1 1 1 1 0 0 0 1 2 1 0 0 0 0 0 0 0 0 0 0 0 0 0 0 0 0 0 0 0 0 0 1 2 3 3 3 2 1 0
0 0 0 0 0 0 0 0 0 0 0 1 2 1 0 0 0 0 0 0 0 0 0 0 0 0 0 0 0 0 0 0 0 0 0 1 2 3 3 3 2 1 0
0 0 0 0 0 0 0 0 0 0 0 1 1 0 0 0 0 0 0 0 0 0 0 0 0 0 0 0 0 0 0 0 0 0 0 0 1 2 2 1 1 1 1
0 0 0 0 0 0 0 0 0 0 0 0 0 0 0 0 0 0 0 0 0 0 0 0 0 0 0 0 0 0 0 0 0 0 0 0 0 1 1 0 0 0 0
0 0 0 0 0 0 0 0 0 0 0 0 0 0 0 0 0 0 0 0 0 0 0 0 0 0 0 0 0 0 0 0 0 0 0 0 0 0 0 0 0 0 0
0 0 0 0 0 0 0 0 0 0 0 0 0 0 0 0 0 0 0 0 0 0 0 0 0 0 0 0 0 0 0 0 0 0 0 0 0 0 0 0 0 0 0
0 0 0 0 0 0 0 0 0 0 0 0 0 0 0 0 0 0 0 0 0 0 0 0 0 0 0 0 0 0 0 0 0 0 0 0 0 0 0 0 0 0 0
0 0 0 0 0 0 0 0 0 0 0 0 0 0 0 0 0 0 0 0 0 0 0 0 0 0 0 0 0 0 0 0 0 0 0 0 0 0 0 0 0 0 0
0 0 0 0 0 0 0 0 0 0 0 0 0 0 0 0 0 0 0 0 0 0 0 0 0 0 0 0 0 0 0 0 0 0 0 0 0 0 0 0 0 0 0
0 0 0 0 0 0 0 0 0 0 0 0 0 0 0 0 0 0 0 0 0 0 0 0 0 0 0 0 0 0 0 0 0 0 0 0 0 0 0 0 0 0 0
0 0 0 0 0 0 0 0 0 0 0 0 0 0 0 0 0 0 0 0 0 0 0 0 0 0 0 0 0 0 0 0 0 0 0 0 0 0 0 0 0 0 0
0 0 0 0 0 0 0 0 0 0 0 0 0 0 0 0 0 0 0 0 0 0 0 0 0 0 0 0 0 0 0 0 0 0 0 0 0 0 0 0 0 0 0
0 0 0 0 0 0 0 0 0 0 0 0 0 0 0 0 0 0 0 0 0 0 0 0 0 0 0 0 0 0 0 0 0 0 0 0 0 0 0 0 0 0 0
0 0 0 0 0 0 0 0 0 0 0 0 0 0 0 0 0 0 0 0 0 0 0 0 0 0 0 0 0 0 0 0 0 0 0 0 0 0 0 0 0 0 0
0 0 0 0 0 0 0 0 0 0 0 0 0 0 0 0 0 0 0 0 0 0 0 0 0 0 0 0 0 0 0 0 0 0 0 0 0 0 0 0 0 0 0
0 0 0 0 0 0 0 0 0 0 0 0 0 0 0 0 0 0 0 0 0 0 0 0 0 0 0 0 0 0 0 0 0 0 0 0 0 0 0 0 0 0 0
Wind_Speed
2 2 2 1 2 2 2 2 2 3 3 3 3 4 5 5 4 5 4 10 10 11 12 13 12 12 13 13 13 13 13 13 13 13 12 11 11 11 11 11 11 11 11
2 2 2 2 2 2 2 2 3 3 3 2 3 4 4 4 4 5 5 6 10 10 11 12 12 12 12 12 12 13 12 13 13 12 12 12 11 11 11 11 11 11 11
2 2 2 2 2 2 2 2 2 2 2 2 3 3 3 4 4 5 5 4 5 9 10 10 11 11 12 12 12 12 13 12 12 12 12 12 11 11 11 10 11 11 11
2 2 2 2 2 1 1 2 1 1 2 2 3 3 3 3 4 5 4 4 4 4 7 10 10 10 11 11 12 12 12 12 13 12 12 12 12 12 11 11 11 11 11
2 2 2 2 1 1 1 2 1 1 2 3 3 3 3 3 4 4 4 5 5 5 4 7 10 10 10 11 11 12 12 12 13 13 13 13 13 12 12 12 12 12 12
1 1 1 2 1 1 1 1 2 2 2 3 3 3 3 3 3 3 4 4 4 5 5 5 5 6 9 10 10 11 11 11 12 12 13 13 13 13 13 13 13 13 13
2 1 1 1 1 1 2 2 2 2 2 1 1 2 3 3 3 3 3 3 4 4 4 4 4 3 4 8 9 11 11 12 12 13 13 13 12 13 13 14 14 13 13
2 1 1 1 1 1 2 2 2 2 2 1 1 1 2 3 3 3 3 3 4 3 3 4 3 4 4 4 5 10 11 12 12 13 13 12 12 13 13 14 14 13 13
2 1 1 1 1 1 2 3 2 3 2 2 2 2 2 3 3 3 3 2 2 2 3 3 4 5 5 4 5 7 10 10 11 12 11 11 11 11 12 13 13 13 13
2 2 2 2 2 2 2 3 2 3 3 3 2 2 2 2 2 3 2 2 2 3 4 3 4 4 4 4 5 7 9 9 9 10 10 10 10 11 11 12 12 12 13
2 2 2 1 2 2 2 3 2 3 3 3 2 2 2 2 3 3 4 3 2 3 3 3 3 3 4 4 4 6 8 7 8 8 9 9 9 10 10 11 11 11 12
2 3 2 1 1 1 2 2 3 3 3 3 3 2 2 2 2 3 3 3 4 3 3 3 3 3 3 3 5 6 7 7 6 6 7 8 9 9 10 10 11 12 12
2 3 2 2 2 2 2 2 3 3 2 2 2 3 3 3 2 3 3 3 3 3 3 2 3 2 3 2 3 6 6 6 6 6 6 7 8 9 9 10 10 11 11
3 3 2 2 2 2 2 2 2 3 2 2 3 3 2 3 2 3 3 2 2 2 2 3 1 2 2 2 3 4 4 6 6 6 6 6 7 8 8 8 9 10 9
2 2 2 2 2 2 2 2 2 3 2 2 2 3 2 2 2 3 3 3 3 3 3 3 2 2 2 2 3 2 3 5 5 5 6 6 7 7 7 7 7 8 9
2 2 2 2 2 3 2 2 2 3 2 2 2 2 2 2 2 2 2 2 3 3 4 2 2 2 2 2 2 2 3 5 6 6 5 6 6 6 6 7 7 8 8
1 1 1 2 2 2 2 2 2 2 2 2 2 1 2 2 1 1 2 2 2 2 4 3 2 2 2 2 2 2 2 3 3 5 5 6 5 5 6 7 7 7 7
1 1 1 2 2 2 2 2 3 3 2 2 3 2 3 2 2 2 2 2 2 2 3 4 2 2 2 2 2 2 2 2 3 4 5 5 5 5 5 6 6 6 7
1 2 2 2 2 3 3 3 3 3 2 2 3 3 3 2 2 2 2 2 2 2 2 2 2 1 2 2 2 2 3 2 3 3 4 4 5 5 6 6 6 6 6
1 2 2 2 2 3 3 3 3 3 3 3 3 3 3 2 3 2 2 2 1 1 1 1 2 2 2 2 1 2 3 2 3 3 3 3 4 5 6 6 6 7 7
2 1 2 2 3 2 3 3 2 3 3 3 3 3 3 3 3 2 2 1 1 1 1 2 2 2 2 1 2 2 3 2 3 2 2 2 2 2 3 5 6 6 6
2 2 2 2 3 3 4 5 3 2 2 3 4 4 4 4 4 4 3 3 3 2 2 2 2 3 3 3 2 2 2 2 3 1 2 3 2 3 3 3 4 6 6
1 2 2 2 2 4 5 5 4 2 2 2 3 4 4 4 4 3 3 4 3 4 4 3 4 4 4 3 3 3 3 3 3 2 2 3 2 3 3 4 5 6 6
1 2 2 2 2 4 5 5 5 3 2 3 3 3 3 4 4 3 2 2 3 3 3 3 4 5 5 4 4 4 3 3 3 2 2 3 3 3 3 3 5 6 6
2 2 2 2 3 5 6 6 4 2 2 4 4 3 3 3 5 4 2 2 3 4 3 3 4 5 5 5 4 2 2 2 2 2 2 3 3 3 3 3 4 6 6
2 2 3 3 3 4 6 6 4 1 2 3 4 4 4 4 5 4 2 2 3 4 4 4 3 3 3 3 4 4 4 3 2 3 2 2 2 2 2 2 2 2 3
Wind_Direction
240 258 263 263 269 272 268 265 261 259 250 250 249 245 246 243 241 241 250 255 253 246 245 243 241 241 237 233 229 225 223 223 223 221 219 218 218 218 215 213 211 208 207
218 238 257 267 267 260 259 255 255 253 253 248 252 253 251 248 243 240 242 253 255 253 250 246 243 241 240 235 231 228 227 227 223 221 217 216 217 216 213 212 212 210 210
219 239 251 260 261 260 263 257 255 253 258 255 261 264 260 253 253 247 244 244 254 255 252 249 244 241 239 234 230 229 229 228 224 221 217 214 215 215 214 212 212 212 213
213 228 246 256 255 248 249 256 259 256 262 266 266 268 264 260 258 254 250 246 245 251 255 253 248 243 239 237 233 231 230 227 227 224 222 218 215 215 215 216 216 216 216
213 213 240 256 256 256 263 268 260 242 252 263 264 263 261 258 259 260 257 253 247 244 244 252 249 246 244 241 238 234 232 228 227 228 226 222 219 216 216 219 219 220 220
237 221 241 260 260 252 264 262 261 258 249 255 271 279 276 266 257 253 256 259 253 248 245 246 250 252 248 244 241 240 236 232 232 231 230 228 224 219 216 219 221 223 223
257 232 252 268 259 242 248 248 245 268 267 254 267 297 292 272 257 251 249 254 260 257 251 244 237 236 251 249 246 244 241 239 237 235 233 232 227 222 219 221 223 226 225
283 258 234 252 252 254 272 257 235 240 258 230 197 273 303 309 288 267 255 249 258 260 258 255 242 233 237 238 246 248 247 244 242 240 236 232 229 226 223 223 223 225 225
315 296 265 255 263 253 260 263 241 230 249 251 206 196 212 252 292 285 260 259 258 254 258 257 248 242 235 233 239 242 246 247 246 243 236 229 228 227 224 223 224 225 225
306 299 293 278 264 259 266 273 261 239 233 249 241 224 224 217 238 289 288 269 264 260 260 261 256 249 239 234 235 233 240 242 247 245 240 235 229 226 225 224 225 227 229
306 310 308 299 287 274 267 274 282 257 230 233 230 220 226 236 233 241 275 289 292 269 260 256 254 253 248 239 234 235 234 232 239 244 243 239 234 229 227 227 228 229 231
302 313 318 301 281 279 273 270 268 263 245 239 236 225 217 214 218 226 251 270 280 281 276 261 252 249 244 240 239 239 233 227 228 234 239 241 238 235 232 233 232 233 233
291 291 290 283 283 277 282 283 281 280 260 247 241 237 235 235 220 216 232 257 271 284 284 267 245 248 251 246 248 247 238 231 227 231 235 237 237 236 235 236 236 236 235
269 278 283 293 297 297 303 300 290 280 274 256 262 253 246 247 228 218 213 221 265 281 276 275 275 240 258 256 259 255 248 239 236 234 235 239 239 237 237 239 238 234 232
284 304 304 300 306 307 304 302 295 294 289 279 275 265 253 251 240 234 222 212 222 262 278 264 265 259 259 257 262 258 253 251 248 242 239 240 241 239 238 239 237 232 225
286 298 316 315 317 314 313 314 306 307 314 302 287 295 290 273 255 241 234 230 224 231 256 262 259 280 277 281 284 268 264 264 255 249 248 241 237 239 238 239 238 234 225
285 292 305 310 317 321 325 332 317 325 327 325 329 315 294 296 283 261 241 230 228 222 248 276 278 291 285 293 304 293 273 258 257 247 250 245 238 237 242 241 237 231 227
313 319 325 336 330 333 336 331 321 330 327 323 325 328 312 309 297 280 256 243 235 222 232 267 286 288 271 280 292 291 288 278 273 265 260 251 244 239 239 240 233 227 229
353 353 1 346 325 326 338 328 320 323 322 315 313 313 312 314 304 296 280 262 248 237 227 245 276 287 280 293 313 310 300 289 281 274 268 256 250 245 243 240 233 230 231
9 356 354 336 327 333 338 329 330 330 327 321 313 304 304 292 275 270 271 264 257 256 248 251 272 287 285 288 271 279 289 286 280 276 278 275 266 255 250 244 238 234 233
353 343 353 347 342 341 334 329 328 329 327 327 327 321 318 313 298 280 268 243 231 245 256 255 267 277 276 280 263 254 263 288 284 263 270 271 270 269 261 249 240 233 232
346 359 352 342 343 335 334 333 329 327 326 329 328 321 314 316 314 315 307 280 245 234 240 243 253 255 260 254 248 248 251 267 279 262 250 272 252 261 260 248 241 234 232
345 350 335 333 324 318 325 323 322 314 309 309 312 319 321 324 321 306 309 312 289 271 243 230 245 251 254 244 231 242 239 242 256 261 234 263 253 257 259 256 249 240 233
320 309 312 314 315 317 322 321 320 313 301 301 299 299 308 317 322 313 307 313 306 293 268 247 247 255 256 251 229 232 239 247 265 254 223 257 267 263 265 260 252 243 234
307 300 296 307 315 314 324 322 320 317 319 317 314 312 308 306 319 321 312 305 308 306 293 276 270 274 275 263 239 214 220 235 270 263 215 237 263 274 267 260 253 239 235
282 303 311 309 306 306 318 320 314 314 318 315 319 321 323 319 324 331 307 291 297 304 315 321 317 313 295 274 241 219 216 225 250 262 213 212 246 259 273 262 268 258 248